Regional Weather Roundup
Issued by NWS

Home | Current Version | Previous Version | Graphics & Text | Print | Product List | Glossary On
Versions: 1 2 3 4 5 6 7 8 9 10 11 12 13 14 15 16 17 18 19 20 21 22 23 24 25 26 27 28 29 30 31 32 33 34 35 36 37 38 39 40 41 42 43 44 45 46 47 48 49 50
000
ASUS43 KIND 270400
RWRIN

WEATHER ROUNDUP FOR INDIANA
NATIONAL WEATHER SERVICE INDIANAPOLIS IN
1200 AM EDT TUE JUN 27 2017

NOTE: "FAIR" INDICATES FEW OR NO CLOUDS BELOW 12,000 FEET WITH NO
SIGNIFICANT WEATHER AND/OR OBSTRUCTIONS TO VISIBILITY.

* - STATION DOES NOT REPORT WEATHER SUCH AS PRECIPITATION OR FOG.

+ - STATION NOT QUALITY CONTROLLED BY THE NATIONAL WEATHER SERVICE.
    USE DATA WITH CAUTION...ESPECIALLY DEWPOINT AND RELATIVE
    HUMIDITY OBSERVATIONS.

INZ001>003-010>013-019-020-270500-
NORTHWEST INDIANA

CITY           SKY/WX    TMP DP  RH WIND       PRES   REMARKS
GARY /AIRPORT/ CLEAR     61  42  48 NW9       30.09S
KNOX *+        CLEAR     52  46  82 CALM      30.08R
MICHIGAN CITY+ MOCLDY    59  45  58 NW3       30.08R
MONTICELLO +   PTCLDY    55  52  87 NW3       30.08R

$$

LMZ046-743>745-270500-
SOUTHERN LAKE MICHIGAN

STATION/POSITION TIME  TEMP    WIND        PRES    WAVE
                       AIR SEA DIR/SP/G            HT
                 (UTC) (F)     (DEG/KT/KT) (MB)    (FT)
BURNS HARBOR     0340   63     330/ 11/ 18 1019.0R
MICHIGAN CITY    0330   62     300/ 14/ 17   N/A
5NW MICH CITY    0350   62 65  320/ 14/ 17   N/A     4

$$

INZ004-005-014>016-021>024-270500-
NORTH CENTRAL INDIANA

CITY           SKY/WX    TMP DP  RH WIND       PRES   REMARKS
GOSHEN         CLEAR     54  44  69 W7        30.06S
PERU/GRISSOM   CLOUDY    58  55  89 NW9       30.07R
SOUTH BEND     CLEAR     52  47  83 W5        30.08R

$$

INZ006>009-017-018-025>027-270500-
NORTHEAST INDIANA

CITY           SKY/WX    TMP DP  RH WIND       PRES   REMARKS
FORT WAYNE     CLOUDY    57  53  86 W8        30.05S
KENDALLVILLE + CLEAR     55  45  67 CALM      30.06S

$$

INZ028-029-035-036-043>045-051>053-270500-
WEST CENTRAL INDIANA

CITY           SKY/WX    TMP DP  RH WIND       PRES   REMARKS
LAFAYETTE      PTCLDY    53  52  96 W3        30.09R
TERRE HAUTE    PTCLDY    56  52  86 CALM      30.11R

$$

INZ030>032-037>040-046>048-054>057-064-065-270500-
CENTRAL INDIANA

CITY           SKY/WX    TMP DP  RH WIND       PRES   REMARKS
GREENWOOD *+   PTCLDY    57  50  77 SW3       30.09S
INDIANAPOLIS   MOCLDY    56  51  84 SW8       30.08S
-EAGLE CREEK   CLEAR     58  50  75 CALM      30.08R
KOKOMO +       CLOUDY    57  53  86 W7        30.08R
MT COMFORT *+  PTCLDY    55  50  82 SW6       30.08S
SHELBYVILLE    CLOUDY    58  50  75 SW6       30.08S

$$

INZ033-034-041-042-049-050-058-059-270500-
EAST CENTRAL INDIANA

CITY           SKY/WX    TMP DP  RH WIND       PRES   REMARKS
MUNCIE         CLEAR     56  51  84 W6        30.07R
RICHMOND +     CLEAR     54  48  82 W5        30.08S

$$

INZ060-061-067>069-081>083-085>088-270500-
SOUTHWEST INDIANA

CITY           SKY/WX    TMP DP  RH WIND       PRES   REMARKS
EVANSVILLE     PTCLDY    62  53  72 CALM      30.11R
HUNTINGBURG *+ MOCLDY    62  53  72 CALM      30.10S

$$

INZ062-063-066-070>080-084-089>092-270500-
SOUTH CENTRAL AND SOUTHEAST INDIANA

CITY           SKY/WX    TMP DP  RH WIND       PRES   REMARKS
BLOOMINGTON    CLEAR     55  50  83 CALM      30.10S
MADISON *+     PTCLDY    61  48  63 CALM      30.12R
SEYMOUR +      PTCLDY    63  50  63 NW3       30.10R

$$




USA.gov is the U.S. government's official web portal to all federal, state and local government web resources and services.